Flag for Namibia Weather past 2 weeks in Windhoek, Namibia

Now
59 °F

Cool.


Feels Like: 59 °F
Forecast: 54 / 79 °F
Wind: 5 mph from East

Location: Windhoek


UV Index: 7 (High)

Visibility: N/A


Pressure: 30.24 "Hg

Humidity: 72%

Dew point: 50 °F

Location of WindhoekLocation

Historic Weather in Windhoek

°F

Windhoek temperature yesterday

Maximum temperature yesterday: 79 °F (at 3:00 PM)
Minimum temperature yesterday: 52 °F (at 5:00 AM)
Average temperature yesterday: 64 °F

Past Weeks' High & Low Weather Summary

 TemperatureHumidityPressure
High81 °F (Apr 16, 12:00 PM)100% (Apr 13, 8:00 PM)30.36 "Hg (Apr 13, 8:00 PM)
Low50 °F (Apr 11, 6:00 AM)27% (Apr 15, 11:00 AM)30.18 "Hg (Apr 13, 2:00 PM)
Average64 °F62%30.27 "Hg
* Reported Apr 6 6:00 AM — Midnight between Apr 20 and Apr 21, Windhoek, Weather by CustomWeather, © 2014

Note: Actual official high and low records may vary slightly from our data, if they occured in-between our weather recording intervals... More about our weather records

Advertising

Historic Weather Conditions — Data for Previous 24 hours

 ConditionsComfort  
Time TempWeatherWind HumidityBarometerVisibility
12:00 AM
Apr 21
63 °FMild.2 mph56%30.24 "HgN/A
11:00 PM
Apr 20
63 °FMild.5 mph59%30.24 "HgN/A
10:00 PM63 °FMild.3 mph59%30.24 "HgN/A
9:00 PM63 °FMild.5 mph64%30.24 "HgN/A
8:00 PM64 °FMild.2 mph60%30.24 "HgN/A
7:00 PM66 °FClear.3 mph52%30.24 "Hg10 mi
6:00 PM68 °FClear.3 mph53%30.24 "Hg10 mi
5:00 PM72 °FClear.3 mph38%30.21 "Hg10 mi
3:00 PM79 °FPartly sunny.5 mph32%30.24 "HgN/A
2:00 PM73 °FPartly sunny.No wind38%30.24 "HgN/A
1:00 PM75 °FPartly sunny.5 mph34%30.24 "HgN/A
12:00 PM75 °FScattered clouds.8 mph36%30.27 "HgN/A
11:00 AM70 °FScattered clouds.8 mph46%30.30 "HgN/A
10:00 AM70 °FScattered clouds.8 mph43%30.33 "HgN/A
9:00 AM70 °FSunny.5 mph40%30.33 "Hg10 mi
8:00 AM66 °FSunny.No wind46%30.33 "Hg10 mi
7:00 AM57 °FSunny.5 mph59%30.33 "Hg10 mi
6:00 AM52 °FSunny.7 mph72%30.30 "Hg10 mi
5:00 AM52 °FCool.5 mph72%30.30 "HgN/A
4:00 AM54 °FCool.5 mph72%30.27 "HgN/A
3:00 AM55 °FCool.6 mph67%30.30 "HgN/A
2:00 AM57 °FCool.6 mph63%30.30 "HgN/A
1:00 AM57 °FCool.6 mph63%30.33 "HgN/A
Weather by CustomWeather, © 2014

See weather overview